Керки

Туркменистан     37°49′57″N   65°12′34″E
темп.,
°C
ветер,
м/с
пор.,
м/с
влажн.,
%
обл.,
%
осадки,
мм/ч
давл.,
гПа
погр.,
м
23 апреля, пт
пт2323:00+20в11180 0.0 102011
02:00+19юв221710 0.0 101911
05:00+17вюв33185 0.0 101911
08:00+20юв34155 0.0 1020187
11:00+25вюв46145 0.0 10191216
14:00+28всв45100 0.0 10172142
17:00+29св45112 0.0 10152328
20:00+25ссв58165 0.0 1016136
24 апреля, сб
сб2423:00+23св45205 0.0 101654
02:00+21св232313 0.0 101512
05:00+19зюз012676 0.0 101611
08:00+23юз1218100 0.0 1018121
11:00+27з331378 0.0 10181310
14:00+30ссз44821 0.0 10162137
17:00+30с55760 0.0 10151993
20:00+27ссз331115 0.0 101629
25 апреля, вс
вс2523:00+24св461555 0.0 101673
02:00+23св5617100 0.0 101580
05:00+22в332098 0.0 101517
08:00+24юв231589 0.0 1016148
11:00+29юз111135 0.0 1016957
14:00+33с45104 0.0 10142020
17:00+33с6697 0.0 10132634
20:00+29с591348 0.0 1014145
26 апреля, пн
пн2623:00+26с4519100 0.0 101459
02:00+24с4524100 0.0 101356
05:00+22ссз4426100 0.0 101345
08:00+23с2225100 0.0 1013149
11:00+30юз23143 0.0 1012744
14:00+33зюз2280 0.0 10101974
17:00+34з1170 0.0 10092370
20:00+30с22105 0.0 100911
27 апреля, вт
вт2723:00+27в11130 0.0 100911
02:00+25ссз11150 0.0 100811
05:00+25ююв33135 0.0 100811
08:00+27ююв44150 0.0 1010163
11:00+33ю34100 0.0 10091235
14:00+35ю2290 0.0 10082500
17:00+36з1180 0.0 10062692
20:00+33ссз339100 0.0 100714